Regional Weather Roundup
Issued by NWS Cleveland, OH

Home | Current Version | Previous Version | Graphics & Text | Print | Product List | Glossary On
Versions: 1 2 3 4 5 6 7 8 9 10 11 12 13 14 15 16 17 18 19 20 21 22 23 24 25 26 27 28 29 30 31 32 33 34 35 36 37 38 39 40 41 42 43 44 45 46 47 48 49 50
000
ASUS41 KCLE 220100
RWRCLE
OHIO REGIONAL WEATHER ROUNDUP
NATIONAL WEATHER SERVICE WILMINGTON, OH
800 PM EST SUN JAN 21 2018

NOTE: "FAIR" INDICATES FEW OR NO CLOUDS BELOW 12,000 FEET WITH NO
SIGNIFICANT WEATHER AND/OR OBSTRUCTIONS TO VISIBILITY.

OHZ001>008-015>018-024>027-034-035-043-044-220200-
   NORTHWEST OHIO

CITY           SKY/WX    TMP DP  RH WIND       PRES   REMARKS
DEFIANCE       FOG       43  43 100 S5        30.00F VSB 1/2
FINDLAY        CLOUDY    45  42  89 SE5       30.01S
TOLEDO EXPRESS FOG       44  44 100 CALM      30.01S VSB 3/4
TOLEDO EXEC    FOG       42  41  96 S5        30.02F VSB 1/4
LIMA           CLOUDY    49  47  93 S10       30.01S
$$

OHZ009>014-019>023-028>033-038-089-220200-
   NORTHEAST OHIO

CITY           SKY/WX    TMP DP  RH WIND       PRES   REMARKS
CLE-HOPKINS    CLOUDY    46  44  93 S7        30.07S
CLE-LAKEFRONT  CLOUDY    46  43  89 S8        30.04S FOG
CUY CO. ARPT   CLOUDY    46  32  57 S6        30.06R FOG
LORAIN-ELYRIA  FOG       43  39  86 S5        30.05R VSB 3/4
ASHTABULA      CLOUDY    42  41  96 SW6       30.06R
AKRON-CANTON   FOG       43  41  93 S5        30.06S VSB 1/4
WOOSTER        CLOUDY    43  43 100 SW5       30.06S FOG
MANSFIELD      CLOUDY    47  45  93 S9        30.05S
YOUNGSTOWN     DRIZZLE   44  42  93 S6        30.06S FOG
$$

OHZ042-051>053-060>062-070>072-077>081-220200-
  SOUTHWEST OHIO

CITY           SKY/WX    TMP DP  RH WIND       PRES   REMARKS
CINC-COVINGTON CLOUDY    52  51  97 S7        30.04S
CINC-LUNKEN    CLOUDY    54  50  86 CALM      30.06S
HAMILTON       CLOUDY    53  50  89 CALM      30.06R
DAYTON         NOT AVBL
WRIGHT-PAT AFB CLOUDY    51  47  86 CALM      30.05R
DAYTON GENERAL CLOUDY    51  48  89 S6        30.04S
WILMINGTON     CLOUDY    49  49 100 S7        30.05S
$$

OHZ036-037-039>041-045>050-054>059-063>069-073>076-082>088-220200-
  CENTRAL AND SOUTHEAST OHIO

CITY           SKY/WX    TMP DP  RH WIND       PRES   REMARKS
COLUMBUS       CLOUDY    50  49  96 S6        30.06S
OSU AIRPORT    CLOUDY    49  48  97 S7        30.05S
BOLTON FIELD   NOT AVBL
RICKENBACK AFB NOT AVBL
NEWARK         CLOUDY    40  38  93 CALM      30.06S
MARION         CLOUDY    45  42  89 S8        30.04S
LANCASTER      CLOUDY    50  49  96 S5        30.07S
ZANESVILLE     CLOUDY    48  46  93 S6        30.08S
NEW PHILLY     CLOUDY    38  37  97 E5        30.08S
$$




USA.gov is the U.S. government's official web portal to all federal, state and local government web resources and services.